Location: Dackenheim
(49.5215°N, 8.1854°E)
Time: 11:47:55
(UTC+00:00)

JY1SAT - Pass Details

Date: 14 March 2026
Orbit: 466 x 476 km, 97.4° (Epoch: 14 April)

Event Time Altitude Azimuth Distance (km) Brightness Sun altitude
Rises 11:38:22 0° 342° (NNW) 2,546 ? 38.1°
Enters shadow 12:26:49 -78° 141° (SE) 12,935 ? 36.9°
Exits shadow 12:59:21 -25° 36° (NE) 6,379 ? 35.1°
